| time (UTC) | temp C | wind direction | speed KPH | gust KPH | rain 1hr cm | rain 24hr cm | rain mn cm | humidity % | barometer mb |
| 20260506081344 | 5 | 238 | 11.3 | 0.0 | 0.00 | 0.00 | 0.00 | 64 | 1005.6 |
| 20260506080836 | 5 | 235 | 11.3 | 0.0 | 0.00 | 0.00 | 0.00 | 65 | 1005.6 |
| 20260506080331 | 5 | 241 | 12.9 | 0.0 | 0.00 | 0.00 | 0.00 | 65 | 1005.6 |
| 20260506073345 | 5 | 282 | 11.3 | 0.0 | 0.00 | 0.00 | 0.00 | 67 | 1005.2 |
| 20260506072836 | 5 | 234 | 12.9 | 0.0 | 0.00 | 0.00 | 0.00 | 68 | 1005.1 |
| 20260506072400 | 5 | 235 | 11.3 | 0.0 | 0.00 | 0.00 | 0.00 | 67 | 1005.1 |
| 20260506071839 | 5 | 230 | 9.7 | 0.0 | 0.00 | 0.00 | 0.00 | 67 | 1005.1 |
| 20260506071335 | 5 | 216 | 11.3 | 0.0 | 0.00 | 0.00 | 0.00 | 67 | 1004.9 |
| 20260506070841 | 4 | 207 | 14.5 | 0.0 | 0.00 | 0.00 | 0.00 | 67 | 1004.9 |
| 20260506070334 | 4 | 227 | 12.9 | 0.0 | 0.00 | 0.00 | 0.00 | 68 | 1004.9 |
| 20260506062352 | 4 | 255 | 11.3 | 0.0 | 0.00 | 0.00 | 0.00 | 67 | 1004.3 |
| 20260506061848 | 4 | 272 | 11.3 | 0.0 | 0.00 | 0.00 | 0.00 | 67 | 1004.3 |
| 20260506061341 | 4 | 262 | 11.3 | 0.0 | 0.00 | 0.00 | 0.00 | 67 | 1004.1 |
| 20260506060832 | 4 | 289 | 11.3 | 0.0 | 0.00 | 0.00 | 0.00 | 67 | 1004.1 |
| 20260506060346 | 4 | 272 | 9.7 | 0.0 | 0.00 | 0.00 | 0.00 | 67 | 1004.1 |
| 20260506051335 | 3 | 248 | 9.7 | 0.0 | 0.00 | 0.00 | 0.00 | 71 | 1003.4 |
| 20260506050843 | 3 | 241 | 9.7 | 0.0 | 0.00 | 0.00 | 0.00 | 72 | 1003.4 |
| 20260506050337 | 3 | 274 | 11.3 | 0.0 | 0.00 | 0.00 | 0.00 | 71 | 1003.4 |
| 20260506044848 | 3 | 275 | 9.7 | 0.0 | 0.00 | 0.00 | 0.00 | 71 | 1003.3 |
| 20260506044340 | 3 | 261 | 9.7 | 0.0 | 0.00 | 0.00 | 0.00 | 71 | 1003.2 |
| 20260506043833 | 3 | 259 | 9.7 | 0.0 | 0.00 | 0.00 | 0.00 | 71 | 1003.2 |
| 20260506043350 | 3 | 228 | 9.7 | 0.0 | 0.00 | 0.00 | 0.00 | 72 | 1003.2 |
| 20260506042840 | 3 | 243 | 9.7 | 0.0 | 0.00 | 0.00 | 0.00 | 71 | 1003.1 |
| 20260506042333 | 3 | 254 | 8.0 | 0.0 | 0.00 | 0.00 | 0.00 | 72 | 1003.1 |
| 20260506041842 | 3 | 275 | 8.0 | 0.0 | 0.00 | 0.00 | 0.00 | 73 | 1003.1 |
| 20260506041338 | 3 | 264 | 6.4 | 0.0 | 0.00 | 0.00 | 0.00 | 73 | 1003.0 |
| 20260506040831 | 3 | 258 | 4.8 | 0.0 | 0.00 | 0.00 | 0.00 | 73 | 1003.0 |
| 20260506040357 | 3 | 264 | 4.8 | 0.0 | 0.00 | 0.00 | 0.00 | 73 | 1003.0 |
| 20260506035847 | 3 | 274 | 4.8 | 0.0 | 0.00 | 0.00 | 0.00 | 73 | 1002.8 |
| 20260506035340 | 3 | 240 | 4.8 | 0.0 | 0.00 | 0.00 | 0.00 | 74 | 1002.8 |
| 20260506034832 | 2 | 250 | 4.8 | 0.0 | 0.00 | 0.00 | 0.00 | 74 | 1002.8 |
| 20260506034345 | 2 | 281 | 4.8 | 0.0 | 0.00 | 0.00 | 0.00 | 74 | 1002.8 |
| 20260506033837 | 2 | 241 | 1.6 | 0.0 | 0.00 | 0.00 | 0.00 | 74 | 1002.8 |
| 20260506033332 | 2 | 274 | 0.0 | 0.0 | 0.00 | 0.00 | 0.00 | 75 | 1002.8 |
| 20260506032850 | 2 | 235 | 3.2 | 0.0 | 0.00 | 0.00 | 0.00 | 75 | 1002.7 |
| 20260506032343 | 2 | 295 | 4.8 | 0.0 | 0.00 | 0.00 | 0.00 | 75 | 1002.7 |
| 20260506031835 | 2 | 267 | 3.2 | 0.0 | 0.00 | 0.00 | 0.00 | 76 | 1002.7 |
| 20260506031331 | 2 | 231 | 4.8 | 0.0 | 0.00 | 0.00 | 0.00 | 76 | 1002.6 |
| 20260506030844 | 2 | 262 | 3.2 | 0.0 | 0.00 | 0.00 | 0.00 | 76 | 1002.6 |
| 20260506030339 | 2 | 265 | 3.2 | 0.0 | 0.00 | 0.00 | 0.00 | 76 | 1002.6 |
| 20260506025830 | 2 | 250 | 3.2 | 0.0 | 0.00 | 0.00 | 0.00 | 76 | 1002.5 |
| 20260506025347 | 2 | 267 | 3.2 | 0.0 | 0.00 | 0.00 | 0.00 | 76 | 1002.5 |
| 20260506024839 | 2 | 282 | 4.8 | 0.0 | 0.00 | 0.00 | 0.00 | 76 | 1002.5 |
| 20260506024332 | 2 | 230 | 4.8 | 0.0 | 0.00 | 0.00 | 0.00 | 76 | 1002.4 |
| 20260506023852 | 2 | 264 | 3.2 | 0.0 | 0.00 | 0.00 | 0.00 | 75 | 1002.4 |
| 20260506023350 | 2 | 258 | 4.8 | 0.0 | 0.00 | 0.00 | 0.00 | 75 | 1002.4 |
| 20260506022841 | 2 | 228 | 6.4 | 0.0 | 0.00 | 0.00 | 0.00 | 75 | 1002.3 |
| 20260506022337 | 2 | 283 | 4.8 | 0.0 | 0.00 | 0.00 | 0.00 | 75 | 1002.3 |
| 20260506021829 | 2 | 245 | 3.2 | 0.0 | 0.00 | 0.00 | 0.00 | 75 | 1002.3 |
| 20260506021346 | 2 | 261 | 3.2 | 0.0 | 0.00 | 0.00 | 0.00 | 75 | 1002.2 |
| 20260506020837 | 2 | 262 | 3.2 | 0.0 | 0.00 | 0.00 | 0.00 | 75 | 1002.2 |
| 20260506020335 | 2 | 254 | 3.2 | 0.0 | 0.00 | 0.00 | 0.00 | 75 | 1002.2 |
| 20260506015845 | 2 | 241 | 4.8 | 0.0 | 0.00 | 0.00 | 0.00 | 74 | 1002.1 |
| 20260506015342 | 2 | 254 | 4.8 | 0.0 | 0.00 | 0.00 | 0.00 | 74 | 1002.1 |
| 20260506014830 | 2 | 264 | 4.8 | 0.0 | 0.00 | 0.00 | 0.00 | 73 | 1002.1 |
| 20260506014355 | 2 | 279 | 6.4 | 0.0 | 0.00 | 0.00 | 0.00 | 73 | 1001.9 |
| 20260506013847 | 2 | 261 | 4.8 | 0.0 | 0.00 | 0.00 | 0.00 | 73 | 1001.9 |
| 20260506013345 | 2 | 240 | 3.2 | 0.0 | 0.00 | 0.00 | 0.00 | 73 | 1001.9 |
| 20260506012840 | 2 | 245 | 3.2 | 0.0 | 0.00 | 0.00 | 0.00 | 73 | 1001.7 |
| 20260506012336 | 2 | 300 | 3.2 | 0.0 | 0.00 | 0.00 | 0.00 | 72 | 1001.7 |
| 20260506011829 | 2 | 293 | 3.2 | 0.0 | 0.00 | 0.00 | 0.00 | 72 | 1001.7 |
| 20260506011342 | 2 | 274 | 3.2 | 0.0 | 0.00 | 0.00 | 0.00 | 72 | 1001.7 |
| 20260506010834 | 2 | 289 | 4.8 | 0.0 | 0.00 | 0.00 | 0.00 | 71 | 1001.7 |
| 20260506010400 | 3 | 268 | 4.8 | 0.0 | 0.00 | 0.00 | 0.00 | 71 | 1001.7 |
| 20260506005835 | 3 | 274 | 4.8 | 0.0 | 0.00 | 0.00 | 0.00 | 71 | 1001.6 |
| 20260506005400 | 3 | 283 | 4.8 | 0.0 | 0.00 | 0.00 | 0.00 | 71 | 1001.6 |
| 20260506004833 | 2 | 243 | 4.8 | 0.0 | 0.00 | 0.00 | 0.00 | 71 | 1001.6 |
| 20260506004345 | 3 | 269 | 4.8 | 0.0 | 0.00 | 0.00 | 0.00 | 72 | 1001.5 |
| 20260506003838 | 3 | 257 | 4.8 | 0.0 | 0.00 | 0.00 | 0.00 | 71 | 1001.5 |
| 20260506003337 | 3 | 320 | 4.8 | 0.0 | 0.00 | 0.00 | 0.00 | 72 | 1001.5 |
| 20260506002846 | 3 | 261 | 4.8 | 0.0 | 0.00 | 0.00 | 0.00 | 71 | 1001.5 |
| 20260506002339 | 3 | 264 | 4.8 | 0.0 | 0.00 | 0.00 | 0.00 | 71 | 1001.5 |
| 20260506001831 | 3 | 296 | 4.8 | 0.0 | 0.00 | 0.00 | 0.00 | 70 | 1001.5 |
| 20260506001334 | 3 | 245 | 4.8 | 0.0 | 0.00 | 0.00 | 0.00 | 70 | 1001.2 |
| 20260506000854 | 3 | 282 | 3.2 | 0.0 | 0.00 | 0.00 | 0.00 | 70 | 1001.2 |
| 20260506000349 | 3 | 264 | 3.2 | 0.0 | 0.00 | 0.00 | 0.00 | 70 | 1001.2 |
| 20260505235839 | 3 | 281 | 4.8 | 0.0 | 0.00 | 0.00 | 0.00 | 69 | 1001.2 |
| 20260505235332 | 3 | 292 | 4.8 | 0.0 | 0.00 | 0.00 | 0.00 | 69 | 1001.2 |
| 20260505234847 | 3 | 252 | 4.8 | 0.0 | 0.00 | 0.00 | 0.00 | 69 | 1001.2 |
| 20260505234340 | 3 | 268 | 3.2 | 0.0 | 0.00 | 0.00 | 0.00 | 69 | 1001.2 |
| 20260505233833 | 3 | 252 | 3.2 | 0.0 | 0.00 | 0.00 | 0.00 | 69 | 1001.2 |
| 20260505233327 | 3 | 286 | 3.2 | 0.0 | 0.00 | 0.00 | 0.00 | 68 | 1001.2 |
| 20260505232843 | 3 | 262 | 3.2 | 0.0 | 0.00 | 0.00 | 0.00 | 67 | 1001.1 |
| 20260505232335 | 3 | 254 | 3.2 | 0.0 | 0.00 | 0.00 | 0.00 | 67 | 1001.1 |
| 20260505231831 | 3 | 251 | 1.6 | 0.0 | 0.00 | 0.00 | 0.00 | 67 | 1001.1 |
| 20260505231351 | 3 | 261 | 1.6 | 0.0 | 0.00 | 0.00 | 0.00 | 66 | 1001.1 |
| 20260505230844 | 3 | 243 | 3.2 | 0.0 | 0.00 | 0.00 | 0.00 | 66 | 1001.1 |
| 20260505230339 | 3 | 259 | 4.8 | 0.0 | 0.00 | 0.00 | 0.00 | 66 | 1001.1 |
| 20260505225833 | 3 | 258 | 4.8 | 0.0 | 0.00 | 0.00 | 0.00 | 66 | 1001.1 |
| 20260505225346 | 3 | 282 | 1.6 | 0.0 | 0.00 | 0.00 | 0.00 | 67 | 1001.1 |
| 20260505224840 | 2 | 303 | 1.6 | 0.0 | 0.00 | 0.00 | 0.00 | 69 | 1001.1 |
| 20260505224333 | 2 | 265 | 1.6 | 0.0 | 0.00 | 0.00 | 0.00 | 69 | 1001.1 |
| 20260505223829 | 2 | 238 | 1.6 | 0.0 | 0.00 | 0.00 | 0.00 | 70 | 1001.1 |
| 20260505223355 | 2 | 250 | 1.6 | 0.0 | 0.00 | 0.00 | 0.00 | 71 | 1001.1 |
| 20260505222845 | 2 | 238 | 1.6 | 0.0 | 0.00 | 0.00 | 0.00 | 72 | 1001.1 |
| 20260505222336 | 2 | 276 | 1.6 | 0.0 | 0.00 | 0.00 | 0.00 | 73 | 1001.1 |
| 20260505221847 | 2 | 259 | 0.0 | 0.0 | 0.00 | 0.00 | 0.00 | 75 | 1001.1 |
| 20260505221344 | 1 | 227 | 0.0 | 0.0 | 0.00 | 0.00 | 0.00 | 75 | 1001.1 |
| 20260505220840 | 1 | 227 | 0.0 | 0.0 | 0.00 | 0.00 | 0.00 | 76 | 1001.1 |
| 20260505220335 | 1 | 226 | 0.0 | 0.0 | 0.00 | 0.00 | 0.00 | 76 | 1001.1 |
| 20260505215829 | 1 | 206 | 0.0 | 0.0 | 0.00 | 0.00 | 0.00 | 77 | 1001.0 |
| 20260505215342 | 1 | 220 | 1.6 | 0.0 | 0.00 | 0.00 | 0.00 | 78 | 1001.0 |
| 20260505214839 | 1 | 214 | 0.0 | 0.0 | 0.00 | 0.00 | 0.00 | 78 | 1001.0 |
| 20260505214332 | 1 | 199 | 0.0 | 0.0 | 0.00 | 0.00 | 0.00 | 79 | 1000.9 |
| 20260505213855 | 1 | 199 | 0.0 | 0.0 | 0.00 | 0.00 | 0.00 | 80 | 1000.9 |
| 20260505213350 | 2 | 199 | 0.0 | 0.0 | 0.00 | 0.00 | 0.00 | 80 | 1000.9 |
| 20260505212840 | 2 | 199 | 1.6 | 0.0 | 0.00 | 0.00 | 0.00 | 80 | 1000.8 |
| 20260505212335 | 2 | 199 | 1.6 | 0.0 | 0.00 | 0.00 | 0.00 | 81 | 1000.8 |
| 20260505211847 | 2 | 197 | 1.6 | 0.0 | 0.00 | 0.00 | 0.00 | 82 | 1000.8 |
| 20260505211340 | 2 | 196 | 1.6 | 0.0 | 0.00 | 0.00 | 0.00 | 82 | 1000.7 |
| 20260505210832 | 2 | 192 | 1.6 | 0.0 | 0.00 | 0.00 | 0.00 | 82 | 1000.7 |
| 20260505210347 | 2 | 206 | 1.6 | 0.0 | 0.00 | 0.00 | 0.00 | 82 | 1000.7 |
| 20260505205837 | 2 | 199 | 1.6 | 0.0 | 0.00 | 0.00 | 0.05 | 82 | 1000.6 |
| 20260505205330 | 2 | 196 | 1.6 | 0.0 | 0.00 | 0.00 | 0.05 | 81 | 1000.6 |
| 20260505204853 | 2 | 196 | 1.6 | 0.0 | 0.00 | 0.00 | 0.05 | 80 | 1000.6 |
| 20260505204342 | 2 | 200 | 1.6 | 0.0 | 0.00 | 0.00 | 0.05 | 78 | 1000.5 |
| 20260505203834 | 3 | 204 | 1.6 | 0.0 | 0.00 | 0.00 | 0.05 | 77 | 1000.6 |
| 20260505203333 | 3 | 200 | 1.6 | 0.0 | 0.00 | 0.00 | 0.05 | 77 | 1000.6 |
| 20260505202843 | 3 | 219 | 1.6 | 0.0 | 0.00 | 0.00 | 0.05 | 77 | 1000.5 |
| 20260505202336 | 3 | 219 | 1.6 | 0.0 | 0.00 | 0.00 | 0.05 | 75 | 1000.5 |
| 20260505201848 | 3 | 213 | 1.6 | 0.0 | 0.00 | 0.00 | 0.05 | 74 | 1000.5 |
| 20260505201341 | 3 | 210 | 1.6 | 0.0 | 0.00 | 0.00 | 0.05 | 73 | 1000.4 |
| 20260505200834 | 3 | 216 | 0.0 | 0.0 | 0.00 | 0.00 | 0.05 | 71 | 1000.4 |
| 20260505200330 | 3 | 211 | 0.0 | 0.0 | 0.00 | 0.00 | 0.05 | 68 | 1000.4 |
| 20260505195856 | 4 | 207 | 1.6 | 0.0 | 0.00 | 0.00 | 0.05 | 66 | 1000.4 |
| 20260505195344 | 4 | 227 | 1.6 | 0.0 | 0.00 | 0.00 | 0.05 | 65 | 1000.4 |
| 20260505194836 | 5 | 230 | 1.6 | 0.0 | 0.00 | 0.00 | 0.05 | 63 | 1000.4 |
| 20260505194329 | 5 | 248 | 3.2 | 0.0 | 0.00 | 0.00 | 0.05 | 62 | 1000.4 |
| 20260505193841 | 5 | 251 | 3.2 | 0.0 | 0.00 | 0.00 | 0.05 | 61 | 1000.4 |
| 20260505193336 | 5 | 279 | 3.2 | 0.0 | 0.00 | 0.00 | 0.05 | 59 | 1000.4 |
| 20260505192847 | 5 | 250 | 3.2 | 0.0 | 0.00 | 0.00 | 0.05 | 57 | 1000.2 |
| 20260505192340 | 5 | 247 | 4.8 | 0.0 | 0.00 | 0.00 | 0.05 | 56 | 1000.2 |
| 20260505191832 | 5 | 247 | 4.8 | 0.0 | 0.00 | 0.00 | 0.05 | 55 | 1000.2 |
| 20260505191356 | 5 | 227 | 4.8 | 0.0 | 0.00 | 0.00 | 0.05 | 55 | 1000.2 |
| 20260505190831 | 6 | 268 | 4.8 | 0.0 | 0.00 | 0.00 | 0.05 | 54 | 1000.2 |
| 20260505190344 | 6 | 271 | 6.4 | 0.0 | 0.00 | 0.00 | 0.05 | 54 | 1000.2 |
| 20260505185830 | 6 | 255 | 8.0 | 0.0 | 0.00 | 0.00 | 0.05 | 53 | 1000.1 |
| 20260505185343 | 6 | 279 | 8.0 | 0.0 | 0.00 | 0.00 | 0.05 | 53 | 1000.1 |
| 20260505184834 | 6 | 230 | 8.0 | 0.0 | 0.00 | 0.00 | 0.05 | 53 | 1000.1 |
| 20260505184359 | 6 | 259 | 6.4 | 0.0 | 0.00 | 0.00 | 0.05 | 52 | 999.8 |
| 20260505183858 | 6 | 261 | 6.4 | 0.0 | 0.00 | 0.00 | 0.05 | 52 | 999.8 |
| 20260505183352 | 6 | 298 | 6.4 | 0.0 | 0.00 | 0.00 | 0.05 | 51 | 999.8 |
| 20260505182841 | 6 | 248 | 6.4 | 0.0 | 0.00 | 0.00 | 0.05 | 51 | 999.6 |
| 20260505182331 | 7 | 227 | 4.8 | 0.0 | 0.00 | 0.00 | 0.05 | 50 | 999.6 |
| 20260505181846 | 7 | 227 | 4.8 | 0.0 | 0.00 | 0.00 | 0.05 | 50 | 999.6 |
| 20260505181336 | 7 | 255 | 4.8 | 0.0 | 0.00 | 0.00 | 0.05 | 49 | 999.6 |
| 20260505180842 | 7 | 202 | 4.8 | 0.0 | 0.00 | 0.00 | 0.05 | 50 | 999.6 |
| 20260505175857 | 7 | 261 | 6.4 | 0.0 | 0.00 | 0.00 | 0.05 | 50 | 999.4 |
| 20260505175352 | 7 | 248 | 4.8 | 0.0 | 0.00 | 0.00 | 0.05 | 50 | 999.4 |
| 20260505174843 | 7 | 240 | 4.8 | 0.0 | 0.00 | 0.00 | 0.05 | 50 | 999.4 |
| 20260505174336 | 7 | 247 | 8.0 | 0.0 | 0.00 | 0.00 | 0.05 | 50 | 999.4 |
| 20260505173848 | 7 | 268 | 9.7 | 0.0 | 0.00 | 0.00 | 0.05 | 50 | 999.4 |
| 20260505173342 | 7 | 303 | 9.7 | 0.0 | 0.00 | 0.00 | 0.05 | 51 | 999.4 |
| 20260505172832 | 7 | 250 | 9.7 | 0.0 | 0.00 | 0.00 | 0.05 | 51 | 999.2 |
| 20260505172344 | 7 | 265 | 8.0 | 0.0 | 0.00 | 0.00 | 0.05 | 51 | 999.2 |
| 20260505171835 | 7 | 255 | 8.0 | 0.0 | 0.00 | 0.00 | 0.05 | 51 | 999.2 |
| 20260505171330 | 7 | 244 | 6.4 | 0.0 | 0.00 | 0.00 | 0.05 | 51 | 999.1 |
| 20260505170852 | 7 | 234 | 8.0 | 0.0 | 0.00 | 0.00 | 0.05 | 52 | 999.1 |
| 20260505170347 | 7 | 259 | 9.7 | 0.0 | 0.00 | 0.00 | 0.05 | 52 | 999.1 |
| 20260505165836 | 7 | 211 | 9.7 | 0.0 | 0.00 | 0.00 | 0.05 | 52 | 999.1 |
| 20260505165329 | 7 | 262 | 9.7 | 0.0 | 0.00 | 0.00 | 0.05 | 51 | 999.1 |
| 20260505164841 | 8 | 223 | 8.0 | 0.0 | 0.00 | 0.00 | 0.05 | 49 | 999.1 |
| 20260505164337 | 8 | 195 | 8.0 | 0.0 | 0.00 | 0.00 | 0.05 | 49 | 999.1 |
| 20260505163832 | 8 | 255 | 8.0 | 0.0 | 0.00 | 0.00 | 0.05 | 49 | 999.1 |
| 20260505163343 | 8 | 200 | 11.3 | 0.0 | 0.00 | 0.00 | 0.05 | 49 | 999.1 |
| 20260505162834 | 8 | 245 | 11.3 | 0.0 | 0.00 | 0.00 | 0.05 | 49 | 999.0 |
| 20260505162357 | 8 | 224 | 9.7 | 0.0 | 0.00 | 0.00 | 0.05 | 52 | 999.0 |
| 20260505161849 | 8 | 233 | 11.3 | 0.0 | 0.00 | 0.00 | 0.05 | 50 | 999.0 |
| 20260505161342 | 8 | 293 | 9.7 | 0.0 | 0.00 | 0.00 | 0.05 | 54 | 999.0 |
| 20260505160833 | 8 | 241 | 9.7 | 0.0 | 0.00 | 0.00 | 0.05 | 53 | 999.0 |
| 20260505160349 | 8 | 206 | 11.3 | 0.0 | 0.00 | 0.00 | 0.05 | 53 | 999.0 |
| 20260505153355 | 8 | 228 | 11.3 | 0.0 | 0.00 | 0.00 | 0.05 | 54 | 998.9 |
| 20260505152844 | 8 | 220 | 12.9 | 0.0 | 0.00 | 0.00 | 0.05 | 54 | 998.8 |
| 20260505152340 | 8 | 262 | 14.5 | 0.0 | 0.00 | 0.00 | 0.05 | 54 | 998.8 |
| 20260505151831 | 8 | 243 | 14.5 | 0.0 | 0.00 | 0.00 | 0.05 | 52 | 998.8 |
| 20260505151328 | 8 | 228 | 12.9 | 0.0 | 0.00 | 0.00 | 0.05 | 50 | 998.6 |
| 20260505150844 | 8 | 257 | 12.9 | 0.0 | 0.00 | 0.00 | 0.05 | 48 | 998.6 |
| 20260505150338 | 8 | 285 | 14.5 | 0.0 | 0.00 | 0.00 | 0.05 | 46 | 998.6 |
| 20260505140346 | 8 | 192 | 16.1 | 0.0 | 0.00 | 0.00 | 0.05 | 40 | 998.5 |
| 20260505124828 | 8 | 262 | 16.1 | 0.0 | 0.00 | 0.00 | 0.05 | 43 | 998.0 |
| 20260505124342 | 8 | 223 | 16.1 | 0.0 | 0.00 | 0.00 | 0.05 | 45 | 997.8 |
| 20260505123834 | 8 | 227 | 16.1 | 0.0 | 0.00 | 0.00 | 0.05 | 45 | 997.8 |
| 20260505123349 | 8 | 248 | 14.5 | 0.0 | 0.00 | 0.00 | 0.05 | 43 | 997.8 |
| 20260505122840 | 8 | 228 | 12.9 | 0.0 | 0.00 | 0.00 | 0.05 | 41 | 997.8 |
| 20260505122329 | 8 | 251 | 14.5 | 0.0 | 0.00 | 0.00 | 0.05 | 42 | 997.8 |
| 20260505121852 | 8 | 295 | 14.5 | 0.0 | 0.00 | 0.00 | 0.05 | 40 | 997.8 |
| 20260505121345 | 8 | 302 | 14.5 | 0.0 | 0.00 | 0.00 | 0.05 | 39 | 997.5 |
| 20260505120841 | 8 | 269 | 14.5 | 0.0 | 0.00 | 0.00 | 0.05 | 41 | 997.5 |
| 20260505120336 | 8 | 267 | 14.5 | 0.0 | 0.00 | 0.00 | 0.05 | 41 | 997.5 |
| 20260505115848 | 8 | 296 | 14.5 | 0.0 | 0.00 | 0.00 | 0.05 | 43 | 997.4 |
| 20260505115341 | 8 | 257 | 14.5 | 0.0 | 0.00 | 0.00 | 0.05 | 44 | 997.4 |
| 20260505114834 | 8 | 292 | 14.5 | 0.0 | 0.00 | 0.00 | 0.05 | 45 | 997.4 |
| 20260505114347 | 7 | 302 | 14.5 | 0.0 | 0.00 | 0.00 | 0.05 | 45 | 997.5 |
| 20260505113839 | 7 | 267 | 16.1 | 0.0 | 0.00 | 0.00 | 0.05 | 48 | 997.5 |
| 20260505113401 | 7 | 278 | 14.5 | 0.0 | 0.00 | 0.00 | 0.05 | 49 | 997.5 |
| 20260505112851 | 7 | 233 | 12.9 | 0.0 | 0.00 | 0.00 | 0.05 | 52 | 997.3 |
| 20260505112344 | 7 | 300 | 12.9 | 0.0 | 0.00 | 0.00 | 0.05 | 53 | 997.3 |
| 20260505111837 | 7 | 203 | 12.9 | 0.0 | 0.00 | 0.00 | 0.05 | 52 | 997.3 |
| 20260505111333 | 7 | 230 | 14.5 | 0.0 | 0.00 | 0.00 | 0.05 | 52 | 997.1 |
| 20260505110845 | 7 | 245 | 12.9 | 0.0 | 0.00 | 0.00 | 0.05 | 52 | 997.1 |
| 20260505110339 | 7 | 292 | 12.9 | 0.0 | 0.00 | 0.00 | 0.05 | 54 | 997.1 |
| 20260505101833 | 6 | 257 | 12.9 | 0.0 | 0.00 | 0.00 | 0.05 | 56 | 996.6 |
| 20260505101346 | 6 | 235 | 14.5 | 0.0 | 0.00 | 0.00 | 0.05 | 52 | 996.5 |
| 20260505100838 | 6 | 298 | 14.5 | 0.0 | 0.00 | 0.00 | 0.05 | 54 | 996.5 |
| 20260505100333 | 6 | 268 | 16.1 | 0.0 | 0.00 | 0.00 | 0.05 | 53 | 996.5 |
| 20260505095853 | 6 | 265 | 14.5 | 0.0 | 0.00 | 0.00 | 0.05 | 54 | 996.5 |
| 20260505095342 | 6 | 240 | 14.5 | 0.0 | 0.00 | 0.00 | 0.05 | 54 | 996.5 |
| 20260505094833 | 6 | 292 | 14.5 | 0.0 | 0.00 | 0.00 | 0.05 | 55 | 996.5 |
| 20260505094329 | 6 | 244 | 16.1 | 0.0 | 0.00 | 0.00 | 0.05 | 57 | 996.4 |
| 20260505093842 | 6 | 305 | 16.1 | 0.0 | 0.00 | 0.00 | 0.05 | 55 | 996.4 |
| 20260505093337 | 6 | 347 | 11.3 | 0.0 | 0.00 | 0.00 | 0.05 | 56 | 996.4 |
| 20260505092847 | 6 | 240 | 9.7 | 0.0 | 0.00 | 0.00 | 0.05 | 58 | 996.3 |
| 20260505092340 | 5 | 227 | 12.9 | 0.0 | 0.00 | 0.00 | 0.05 | 61 | 996.3 |
| 20260505091831 | 5 | 245 | 14.5 | 0.0 | 0.00 | 0.00 | 0.05 | 61 | 996.3 |
| 20260505091356 | 5 | 217 | 12.9 | 0.0 | 0.00 | 0.00 | 0.05 | 64 | 996.1 |
| 20260505090848 | 5 | 274 | 9.7 | 0.0 | 0.00 | 0.00 | 0.05 | 63 | 996.1 |
| 20260505090343 | 5 | 293 | 9.7 | 0.0 | 0.00 | 0.00 | 0.05 | 64 | 996.1 |
| 20260505085838 | 5 | 282 | 11.3 | 0.0 | 0.00 | 0.00 | 0.05 | 64 | 995.9 |
| 20260505085331 | 5 | 244 | 11.3 | 0.0 | 0.00 | 0.00 | 0.05 | 65 | 995.9 |
| 20260505084843 | 5 | 268 | 11.3 | 0.0 | 0.00 | 0.00 | 0.05 | 65 | 995.9 |
| 20260505084336 | 5 | 231 | 9.7 | 0.0 | 0.00 | 0.00 | 0.05 | 64 | 995.7 |
| 20260505083848 | 5 | 237 | 9.7 | 0.0 | 0.00 | 0.00 | 0.05 | 65 | 995.7 |
| 20260505083342 | 5 | 360 | 11.3 | 0.0 | 0.00 | 0.00 | 0.05 | 66 | 995.7 |
| 20260505082833 | 5 | 289 | 11.3 | 0.0 | 0.00 | 0.00 | 0.05 | 66 | 995.5 |
| 20260505082357 | 5 | 241 | 9.7 | 0.0 | 0.00 | 0.00 | 0.05 | 66 | 995.5 |
| 20260505081849 | 5 | 234 | 9.7 | 0.0 | 0.00 | 0.00 | 0.05 | 68 | 995.5 |